SAS454 ENBR-ENGM

Flight info

Callsign SAS454
Flight time N/A
Altitude 27000
Route GOKAB DCT ULVAN DCT ADOPI
Aircraft RJ70/M-SDFGIRWY/LB1

Departure

Time 2026-05-06 17:51
Airport Bergen Airport, Flesland (ENBR)

Arrival

Time N/A
Airport Oslo-Gardermoen International Airport (ENGM)
Time Latitude Longitude Altitude Speed Heading
2026-05-06 16:52 60.29083 5.22466 178 ft 0 kts 57°
2026-05-06 17:41 60.29081 5.22461 178 ft 3 kts 56°
2026-05-06 17:41 60.29062 5.22431 177 ft 4 kts 10°
2026-05-06 17:42 60.29035 5.22431 176 ft 4 kts
2026-05-06 17:42 60.29024 5.22429 176 ft 1 kts
2026-05-06 17:42 60.29023 5.22429 176 ft 0 kts
2026-05-06 17:46 60.29026 5.22430 176 ft 3 kts
2026-05-06 17:46 60.29054 5.22392 177 ft 8 kts 305°
2026-05-06 17:47 60.29089 5.22254 175 ft 14 kts 299°
2026-05-06 17:47 60.29188 5.22187 169 ft 17 kts 351°
2026-05-06 17:47 60.29318 5.22143 163 ft 19 kts 350°
2026-05-06 17:47 60.29450 5.22097 158 ft 21 kts 350°
2026-05-06 17:48 60.29599 5.22049 153 ft 23 kts 351°
2026-05-06 17:48 60.29761 5.21994 148 ft 24 kts 350°
2026-05-06 17:48 60.29914 5.21941 154 ft 21 kts 350°
2026-05-06 17:48 60.30045 5.21897 159 ft 18 kts 350°
2026-05-06 17:49 60.30171 5.21857 165 ft 19 kts 351°
2026-05-06 17:49 60.30306 5.21813 171 ft 20 kts 351°
2026-05-06 17:49 60.30444 5.21763 177 ft 21 kts 349°
2026-05-06 17:49 60.30608 5.21709 184 ft 23 kts 349°
2026-05-06 17:50 60.30659 5.21566 179 ft 7 kts 261°
2026-05-06 17:50 60.30627 5.21408 177 ft 14 kts 210°
2026-05-06 17:50 60.30538 5.21416 176 ft 7 kts 169°
2026-05-06 17:50 60.30532 5.21418 176 ft 0 kts 169°
2026-05-06 17:51 60.30464 5.21444 175 ft 43 kts 170°
2026-05-06 17:51 60.29887 5.21632 152 ft 122 kts 172°
2026-05-06 17:51 60.28961 5.21907 531 ft 142 kts 173°
2026-05-06 17:51 60.27956 5.22228 1149 ft 153 kts 173°
2026-05-06 17:52 60.26850 5.22641 1808 ft 172 kts 171°
2026-05-06 17:52 60.25606 5.23201 2542 ft 193 kts 168°
2026-05-06 17:52 60.24363 5.23920 3759 ft 183 kts 170°
2026-05-06 17:52 60.23131 5.24329 4918 ft 177 kts 175°
2026-05-06 17:53 60.21925 5.24639 5963 ft 173 kts 176°
2026-05-06 17:53 60.20739 5.24955 6906 ft 172 kts 176°
2026-05-06 17:53 60.19494 5.25294 7532 ft 188 kts 175°
2026-05-06 17:53 60.18171 5.25684 8270 ft 198 kts 175°
2026-05-06 17:54 60.16781 5.26098 8738 ft 205 kts 175°
2026-05-06 17:54 60.15328 5.26555 9119 ft 211 kts 174°
2026-05-06 17:54 60.13884 5.27038 10061 ft 211 kts 174°
2026-05-06 17:54 60.12422 5.27533 10842 ft 215 kts 174°
2026-05-06 17:55 60.11038 5.28766 11562 ft 227 kts 136°
2026-05-06 17:55 60.10294 5.31519 12265 ft 234 kts 98°
2026-05-06 17:55 60.10183 5.34783 12982 ft 237 kts 88°
2026-05-06 17:55 60.10248 5.38119 13704 ft 242 kts 83°
2026-05-06 17:56 60.10523 5.41478 14211 ft 249 kts 61°
2026-05-06 17:56 60.11579 5.44102 14734 ft 240 kts 24°
2026-05-06 17:56 60.13082 5.45451 15320 ft 240 kts 16°
2026-05-06 17:56 60.14371 5.47784 15880 ft 267 kts 56°
2026-05-06 17:57 60.14858 5.51470 16405 ft 283 kts 90°
2026-05-06 17:57 60.14642 5.55436 16871 ft 292 kts 99°
2026-05-06 17:57 60.14326 5.59515 17026 ft 294 kts 100°
2026-05-06 17:57 60.13986 5.63511 17043 ft 290 kts 101°
2026-05-06 17:58 60.13631 5.67441 17048 ft 291 kts 102°
2026-05-06 17:58 60.13260 5.71428 17049 ft 291 kts 102°
2026-05-06 17:58 60.12902 5.75425 17044 ft 291 kts 96°
2026-05-06 17:58 60.13147 5.79374 17074 ft 284 kts 60°
2026-05-06 17:59 60.14073 5.82808 17073 ft 280 kts 52°
2026-05-06 17:59 60.15065 5.86184 17051 ft 282 kts 53°
2026-05-06 17:59 60.16034 5.89612 17033 ft 282 kts 54°
2026-05-06 17:59 60.16966 5.93076 17005 ft 283 kts 57°
2026-05-06 18:00 60.17830 5.96631 17019 ft 283 kts 59°
2026-05-06 18:00 60.18655 6.00231 17045 ft 284 kts 60°
2026-05-06 18:00 60.19444 6.03818 17048 ft 285 kts 61°
2026-05-06 18:00 60.20216 6.07496 17051 ft 287 kts 66°
2026-05-06 18:01 60.20438 6.11496 17111 ft 296 kts 100°
2026-05-06 18:01 60.20086 6.15539 17844 ft 296 kts 101°
2026-05-06 18:01 60.19727 6.19676 18335 ft 306 kts 101°
2026-05-06 18:01 60.19347 6.23976 18680 ft 319 kts 102°
2026-05-06 18:02 60.18949 6.28397 19143 ft 324 kts 102°
2026-05-06 18:02 60.18547 6.32870 19733 ft 326 kts 103°
2026-05-06 18:02 60.18141 6.37380 20266 ft 330 kts 103°
2026-05-06 18:02 60.17736 6.41933 20828 ft 333 kts 103°
2026-05-06 18:03 60.17339 6.46549 21358 ft 337 kts 100°
2026-05-06 18:03 60.17399 6.51214 21796 ft 342 kts 80°
2026-05-06 18:03 60.17826 6.55963 22102 ft 351 kts 77°
2026-05-06 18:03 60.18298 6.60896 22205 ft 368 kts 78°
2026-05-06 18:04 60.18765 6.66061 22309 ft 383 kts 79°
2026-05-06 18:04 60.19192 6.71432 22321 ft 396 kts 81°
2026-05-06 18:04 60.19577 6.76992 22377 ft 407 kts 82°
2026-05-06 18:04 60.19925 6.82678 22642 ft 412 kts 83°
2026-05-06 18:05 60.20250 6.88417 22964 ft 414 kts 83°
2026-05-06 18:05 60.20570 6.94186 23286 ft 417 kts 84°
2026-05-06 18:05 60.20885 6.99917 23601 ft 419 kts 84°
2026-05-06 18:05 60.21205 7.05763 23884 ft 421 kts 84°
2026-05-06 18:06 60.21531 7.11655 24014 ft 428 kts 84°
2026-05-06 18:06 60.21865 7.17679 24026 ft 438 kts 84°
2026-05-06 18:06 60.22203 7.23842 24052 ft 448 kts 84°
2026-05-06 18:06 60.22552 7.30138 24073 ft 457 kts 84°
2026-05-06 18:07 60.22910 7.36522 24207 ft 462 kts 84°
2026-05-06 18:07 60.23267 7.42952 24463 ft 463 kts 84°
2026-05-06 18:07 60.23629 7.49396 24785 ft 462 kts 84°
2026-05-06 18:07 60.23990 7.55737 25089 ft 462 kts 84°
2026-05-06 18:08 60.24336 7.62164 25444 ft 462 kts 85°
2026-05-06 18:08 60.24675 7.68608 25670 ft 463 kts 85°
2026-05-06 18:08 60.25010 7.75060 25955 ft 463 kts 85°
2026-05-06 18:08 60.25346 7.81505 26260 ft 463 kts 85°
2026-05-06 18:09 60.25682 7.87954 26475 ft 465 kts 85°
2026-05-06 18:09 60.26011 7.94481 26480 ft 472 kts 85°
2026-05-06 18:09 60.26798 8.00923 26486 ft 477 kts 64°
2026-05-06 18:09 60.28528 8.06596 26486 ft 475 kts 47°
2026-05-06 18:10 60.30650 8.11746 26515 ft 480 kts 45°
2026-05-06 18:10 60.32804 8.16822 26539 ft 485 kts 44°
2026-05-06 18:10 60.35039 8.21976 26585 ft 490 kts 44°
2026-05-06 18:10 60.37300 8.27133 26779 ft 491 kts 44°
2026-05-06 18:11 60.39568 8.32279 26951 ft 491 kts 44°
2026-05-06 18:11 60.41811 8.37372 26971 ft 474 kts 44°
2026-05-06 18:11 60.43969 8.42302 26984 ft 460 kts 44°
2026-05-06 18:11 60.46034 8.47053 26976 ft 440 kts 44°
2026-05-06 18:12 60.48010 8.51639 26986 ft 425 kts 44°
2026-05-06 18:12 60.49906 8.56289 26485 ft 434 kts 53°
2026-05-06 18:12 60.51166 8.61807 25962 ft 441 kts 75°
2026-05-06 18:12 60.51504 8.67955 25412 ft 437 kts 97°
2026-05-06 18:13 60.50965 8.73955 24843 ft 431 kts 111°
2026-05-06 18:13 60.50152 8.79824 24294 ft 432 kts 112°
2026-05-06 18:13 60.49304 8.85657 23710 ft 429 kts 114°
2026-05-06 18:13 60.48070 8.91014 23105 ft 410 kts 135°
2026-05-06 18:14 60.46271 8.95362 22470 ft 399 kts 142°
2026-05-06 18:14 60.44415 8.99502 21781 ft 395 kts 142°
2026-05-06 18:14 60.42526 9.03528 21101 ft 394 kts 143°
2026-05-06 18:14 60.40713 9.07321 20422 ft 365 kts 143°
2026-05-06 18:15 60.38956 9.10971 19757 ft 369 kts 143°
2026-05-06 18:15 60.37145 9.14672 19094 ft 372 kts 143°
2026-05-06 18:15 60.35340 9.18457 18420 ft 378 kts 136°
2026-05-06 18:15 60.34056 9.23199 17725 ft 392 kts 117°
2026-05-06 18:16 60.33081 9.28334 17024 ft 394 kts 112°
2026-05-06 18:16 60.32516 9.33749 16335 ft 397 kts 97°
2026-05-06 18:16 60.32619 9.39220 15763 ft 372 kts 81°
2026-05-06 18:16 60.33089 9.44090 15178 ft 350 kts 76°
2026-05-06 18:17 60.33691 9.48828 14865 ft 344 kts 74°
2026-05-06 18:17 60.34346 9.53430 14517 ft 339 kts 73°
2026-05-06 18:17 60.35013 9.57954 14210 ft 333 kts 73°
2026-05-06 18:17 60.35659 9.62407 13829 ft 329 kts 73°
2026-05-06 18:18 60.36284 9.66768 13501 ft 325 kts 74°
2026-05-06 18:18 60.36894 9.71141 13116 ft 322 kts 74°
2026-05-06 18:18 60.37496 9.75483 12741 ft 319 kts 74°
2026-05-06 18:18 60.38091 9.79785 12355 ft 316 kts 74°
2026-05-06 18:19 60.38668 9.84047 12003 ft 312 kts 75°
2026-05-06 18:19 60.39223 9.88243 11789 ft 305 kts 75°
2026-05-06 18:19 60.39758 9.92360 11448 ft 302 kts 75°
2026-05-06 18:19 60.40294 9.96441 11076 ft 300 kts 75°
2026-05-06 18:20 60.40842 10.00506 10639 ft 300 kts 75°
2026-05-06 18:20 60.41385 10.04498 10297 ft 297 kts 74°
2026-05-06 18:20 60.41928 10.08505 10050 ft 294 kts 74°
2026-05-06 18:20 60.42462 10.12492 9972 ft 294 kts 75°
2026-05-06 18:21 60.42985 10.16482 9943 ft 293 kts 76°
2026-05-06 18:21 60.43516 10.20473 9944 ft 294 kts 76°
2026-05-06 18:21 60.44034 10.24475 9941 ft 294 kts 76°
2026-05-06 18:21 60.44548 10.28481 9942 ft 294 kts 76°
2026-05-06 18:22 60.45070 10.32482 9935 ft 294 kts 76°
2026-05-06 18:22 60.45606 10.36478 9940 ft 294 kts 76°
2026-05-06 18:22 60.46129 10.40397 9900 ft 287 kts 73°
2026-05-06 18:22 60.47121 10.43719 9904 ft 271 kts 40°
2026-05-06 18:23 60.48734 10.45373 9931 ft 257 kts 12°
2026-05-06 18:23 60.50377 10.46806 9937 ft 262 kts 40°
2026-05-06 18:23 60.51360 10.49868 9949 ft 262 kts 76°
2026-05-06 18:23 60.51384 10.53490 9964 ft 257 kts 105°
2026-05-06 18:24 60.50917 10.56998 9868 ft 257 kts 108°
2026-05-06 18:24 60.50413 10.60470 9599 ft 256 kts 109°
2026-05-06 18:24 60.49828 10.63868 9297 ft 255 kts 112°
2026-05-06 18:24 60.49247 10.67250 9043 ft 253 kts 109°
2026-05-06 18:25 60.48767 10.70684 8778 ft 253 kts 105°
2026-05-06 18:25 60.48400 10.74124 8516 ft 252 kts 102°
2026-05-06 18:25 60.48113 10.77628 8257 ft 252 kts 99°
2026-05-06 18:25 60.47887 10.81139 7991 ft 251 kts 98°
2026-05-06 18:26 60.47698 10.84640 7734 ft 250 kts 97°
2026-05-06 18:26 60.47535 10.88150 7456 ft 250 kts 96°
2026-05-06 18:26 60.47382 10.91649 7211 ft 249 kts 96°
2026-05-06 18:26 60.47232 10.95132 6972 ft 247 kts 96°
2026-05-06 18:27 60.47080 10.98643 6745 ft 253 kts 96°
2026-05-06 18:27 60.46923 11.02212 6486 ft 255 kts 95°
2026-05-06 18:27 60.46760 11.05781 6197 ft 254 kts 96°
2026-05-06 18:27 60.46606 11.09342 5933 ft 253 kts 95°
2026-05-06 18:28 60.46464 11.12892 5656 ft 252 kts 95°
2026-05-06 18:28 60.46323 11.16431 5362 ft 251 kts 96°
2026-05-06 18:28 60.45816 11.19703 5111 ft 246 kts 127°
2026-05-06 18:28 60.44493 11.21717 5023 ft 238 kts 165°
2026-05-06 18:29 60.42891 11.21755 5015 ft 231 kts 199°
2026-05-06 18:29 60.41400 11.20542 5011 ft 232 kts 206°
2026-05-06 18:29 60.39931 11.19206 5009 ft 232 kts 204°
2026-05-06 18:29 60.38402 11.18176 5004 ft 232 kts 195°
2026-05-06 18:30 60.36817 11.17562 5002 ft 230 kts 190°
2026-05-06 18:30 60.35270 11.17077 4968 ft 220 kts 192°
2026-05-06 18:30 60.33756 11.16462 4348 ft 225 kts 193°
2026-05-06 18:30 60.32269 11.15861 3414 ft 220 kts 195°
2026-05-06 18:31 60.30878 11.14855 2907 ft 203 kts 204°
2026-05-06 18:31 60.29573 11.13858 2615 ft 203 kts 201°
2026-05-06 18:31 60.28224 11.12960 2373 ft 203 kts 199°
2026-05-06 18:31 60.26922 11.12201 2157 ft 183 kts 197°
2026-05-06 18:32 60.25807 11.11583 1924 ft 154 kts 198°
2026-05-06 18:32 60.24812 11.11042 1698 ft 139 kts 197°
2026-05-06 18:32 60.23942 11.10573 1477 ft 124 kts 199°
2026-05-06 18:32 60.23102 11.10086 1218 ft 127 kts 199°
2026-05-06 18:33 60.22248 11.09558 976 ft 130 kts 199°
2026-05-06 18:33 60.21389 11.09050 753 ft 127 kts 197°
2026-05-06 18:33 60.20594 11.08589 721 ft 118 kts 194°
2026-05-06 18:33 60.19789 11.08172 734 ft 124 kts 207°